Weather in Shevchenkovo

Ukraine / Odesa District     46°56′27″N   30°05′48″E
temp.,
°C
wind,
m/s
gust,
m/s
humid.,
%
clouds,
%
prec.,
mm/h
press.,
hPa
HPBL,
m
15 may, sat
sat1500:00+13ssw34756 0.0 100956
03:00+11ssw32845 0.0 101027
06:00+11wsw22840 0.0 101117
09:00+17sw34605 0.0 1011415
12:00+21sw44455 0.0 10121480
15:00+23sw353764 0.0 10112531
18:00+21sse335089 0.0 1011333
21:00+17s4769100 0.2 1012141
16 may, sun
sun1600:00+15s477198 0.0 1012126
03:00+12sse227797 0.0 101220
06:00+12e1178100 0.0 101210
09:00+18ese3459100 0.0 1012414
12:00+22ese4442100 0.0 10111238
15:00+23ese4442100 0.0 10101849
18:00+20s4662100 0.0 1009273
21:00+18nw2253100 0.1 100818
17 may, mon
mon1700:00+17nnw345997 0.0 100760
03:00+16n5116786 0.0 1005240
06:00+14nne4893100 0.9 1004203
09:00+16nw2391100 2.8 1005188
12:00+17nw5782100 1.6 1005384
15:00+15n3693100 6.8 1005338
18:00+18n3474100 1.7 1004543
21:00+15se229091 1.8 100535
18 may, tue
tue1800:00+14s37945 1.0 1005138
03:00+14ssw34895 1.1 100457
06:00+14sw3686100 0.0 100399
09:00+18w5868100 0.1 1004500
12:00+22w565396 0.1 10051537
15:00+19w7865100 1.9 10061347
18:00+18wnw67615 0.6 10071060
21:00+13wnw36815 0.6 1008101
19 may, wed
wed1900:00+11wnw3586100 0.0 101074
03:00+11nw4118558 0.0 1010298
06:00+12wnw5108082 0.0 1011372
09:00+14nw457585 0.1 1013436
12:00+18nw45509 0.6 10131783
15:00+19nw4444100 0.6 10122354
18:00+18nnw2350100 0.0 10121123
21:00+15nne3565100 0.0 101397